Terminal Aerodrome Forecast
Issued by NWS Charleston, WV

Current Version | Previous Version | Text Only | Print | Product List | Glossary Off
Versions: 1 2 3 4 5 6 7 8 9 10 11 12 13 14 15 16 17 18 19 20

173
FTUS41 KRLX 031720
TAFPKB
TAF
KPKB 031720Z 0318/0418 20010KT P6SM BKN020
     FM031900 23012KT P6SM SCT040
     FM040000 24007KT P6SM FEW050
     FM040700 26007KT P6SM BKN025=

USA.gov is the U.S. government's official web portal to all federal, state and local government web resources and services.